This demonstration page uses our WeatherBlox Daily Observations layout. Learn more.

Left ArrowRight Arrow

39.12711, -84.51439

Hourly Observations for June 1, 2018

Temp ( °F °C ) Dew Point ( °F °C ) Humidity (%) Winds ( mph kmh ) Pressure ( in mb ) Visibility ( mi km ) Precip ( " mm )
12:53 am 00:53 Mostly Cloudy 66 18.9 66 18.9 100 100 SSE 3 6 29.85 1011 10 16 N/A
1:53 am 01:53 Clear 66 18.9 66 18.9 100 100 N N/A 29.83 1010 10 16 N/A
2:03 am 02:03 Mostly Clear with Nearby Thunderstorms 67 19.4 66 18.9 97 97 N N/A 29.85 1011 10 16 N/A
2:24 am 02:24 Mostly Clear 67 19.4 66 18.9 97 97 N N/A 29.85 1011 10 16 N/A
2:53 am 02:53 Mostly Cloudy with Thunderstorms 66 18.9 66 18.9 100 100 S 5 7 29.83 1010 10 16 N/A
3:30 am 03:30 Cloudy with Light Rain 67 19.4 67 19.4 100 100 N N/A 29.83 1010 7 11 0.03 0.76
3:53 am 03:53 Mostly Cloudy 67 19.4 67 19.4 100 100 SSW 5 7 29.83 1010 10 16 0.03 0.76
4:53 am 04:53 Partly Cloudy with Light Rain 67 19.4 67 19.4 100 100 N N/A 29.83 1010 8 13 0.01 0.25
5:22 am 05:22 Mostly Cloudy with Light Rain 68 20 68 20 100 100 N N/A 29.85 1011 9 14 N/A
5:42 am 05:42 Mostly Cloudy 68 20 68 20 100 100 N N/A 29.85 1011 7 11 N/A
5:53 am 05:53 Partly Cloudy with Light Rain 68 20 68 20 100 100 N N/A 29.84 1011 7 11 N/A
6:53 am 06:53 Cloudy with Light Rain 68 20 68 20 100 100 SSW 5 7 29.86 1011 5 8 0.02 0.51
7:11 am 07:11 Cloudy with Light Rain 68 20 68 20 100 100 N N/A 29.88 1012 5 8 0.01 0.25
7:53 am 07:53 Cloudy with Light Rain 69 20.6 68 20 96 96 SSW 5 7 29.86 1011 8 13 0.01 0.25
8:05 am 08:05 Cloudy 69 20.6 69 20.6 100 100 SW 3 6 29.88 1012 9 14 N/A
8:53 am 08:53 Cloudy 71 21.7 70 21.1 96 96 N N/A 29.85 1011 10 16 0.01 0.25
9:33 am 09:33 Cloudy 72 22.2 70 21.1 94 94 SSW 7 11 29.88 1012 10 16 N/A
9:51 am 09:51 Mostly Cloudy 73 23 72 22 94 94 S 8 13 29.88 1012 10 16 N/A
9:53 am 09:53 Mostly Cloudy 73 22.8 71 21.7 94 94 S 9 15 29.87 1011 10 16 N/A
10:53 am 10:53 Mostly Cloudy 74 23.3 69 20.6 85 85 SW 5 7 29.88 1012 10 16 N/A
11:17 am 11:17 Partly Cloudy 75 23.9 69 20.6 82 82 SW 5 7 29.88 1012 10 16 N/A
11:53 am 11:53 Cloudy 75 23.9 69 20.6 82 82 WSW 7 11 29.88 1012 10 16 N/A
12:53 pm 12:53 Cloudy 77 25 69 20.6 77 77 SW 5 7 29.88 1012 10 16 N/A
1:53 pm 13:53 Cloudy 79 26.1 71 21.7 77 77 VRB 5 7 29.87 1012 10 16 N/A
2:53 pm 14:53 Mostly Cloudy 80 26.7 70 21.1 71 71 VRB 3 6 29.86 1011 10 16 N/A
3:53 pm 15:53 Mostly Cloudy 82 27.8 72 22.2 72 72 S 8 13 29.83 1010 10 16 N/A
4:53 pm 16:53 Partly Cloudy 80 26.7 71 21.7 74 74 SW 9 15 29.83 1010 10 16 N/A
5:46 pm 17:46 Cloudy with Nearby Thunderstorms 82 27.8 72 22.2 72 72 WSW 9 15 29.83 1010 10 16 N/A
5:53 pm 17:53 Mostly Cloudy with Nearby Thunderstorms 83 28.3 72 22.2 70 70 SW 10 17 29.82 1010 10 16 N/A
6:23 pm 18:23 Mostly Cloudy with Thunderstorms 73 22.8 70 21.1 90 90 NNE 12 19 29.91 1013 5 8 0.01 0.25
6:31 pm 18:31 Cloudy with Strong Thunderstorms 71 21.7 70 21.1 96 96 ENE 15 24 29.88 1012 5 8 0.20 5.08
6:42 pm 18:42 Cloudy with Thunderstorms 69 20.6 68 20 96 96 E 12 19 29.88 1012 4 6 0.29 7.37
6:53 pm 18:53 Cloudy with Thunderstorms 69 20.6 68 20 96 96 SE 5 7 29.84 1010 6 10 0.30 7.62
7:06 pm 19:06 Mostly Cloudy with Nearby Thunderstorms 69 20.6 68 20 96 96 WSW 5 7 29.83 1010 10 16 N/A
7:18 pm 19:18 Partly Cloudy 70 21.1 69 20.6 97 97 WSW 7 11 29.85 1011 10 16 N/A
7:53 pm 19:53 Partly Cloudy 70 21.1 70 21.1 100 100 VRB 3 6 29.84 1011 10 16 N/A
8:53 pm 20:53 Sunny 70 21.1 69 20.6 97 97 N N/A 29.86 1011 10 16 N/A
9:53 pm 21:53 Clear 68 20 68 20 100 100 SSW 6 9 29.88 1012 9 14 N/A
10:53 pm 22:53 Partly Cloudy 69 20.6 69 20.6 100 100 N N/A 29.87 1012 10 16 N/A
11:50 pm 23:50 Clear with Mist and Fog 66 19 66 19 100 100 S 3 6 29.88 1012 2 3 N/A
11:53 pm 23:53 Clear with Mist and Fog 67 19.4 67 19.4 100 100 N N/A 29.87 1011 1 2 N/A

Powered by AerisWeather